Time,TemperatureF,DewpointF,PressureIn,WindDirection,WindDirectionDegrees,WindSpeedMPH,WindSpeedGustMPH,Humidity,HourlyPrecipIn,Conditions,Clouds,dailyrainin,SolarRadiationWatts/m^2,SoftwareType,DateUTC
2013-01-28 00:00:00,32.0,30.0,-100.00,SSE,157,6.0,-999.0,93,-99.99,,,-99.99,1.160000,,2013-01-28 05:00:00,
2013-01-28 00:42:00,32.0,30.0,-100.00,SSE,157,6.0,-999.0,93,-99.99,,,-99.99,1.160000,,2013-01-28 05:42:00,
2013-01-28 00:52:00,32.0,30.0,-100.00,SSE,157,6.0,-999.0,93,-99.99,,,-99.99,1.160000,,2013-01-28 05:52:00,
2013-01-28 01:00:00,33.0,32.0,-100.00,South,180,4.0,-999.0,95,-99.99,,,-99.99,1.160000,,2013-01-28 06:00:00,
2013-01-28 01:42:00,33.0,32.0,-100.00,South,180,4.0,-999.0,95,-99.99,,,-99.99,1.160000,,2013-01-28 06:42:00,
2013-01-28 01:52:00,33.0,32.0,-100.00,South,180,4.0,-999.0,95,-99.99,,,-99.99,1.160000,,2013-01-28 06:52:00,
2013-01-28 02:00:00,33.0,33.0,-100.00,South,180,4.0,-999.0,96,-99.99,,,-99.99,0.000000,,2013-01-28 07:00:00,
2013-01-28 02:42:00,33.0,33.0,-100.00,South,180,4.0,-999.0,96,-99.99,,,-99.99,0.000000,,2013-01-28 07:42:00,
2013-01-28 02:52:00,33.0,33.0,-100.00,South,180,4.0,-999.0,96,-99.99,,,-99.99,0.000000,,2013-01-28 07:52:00,
2013-01-28 03:00:00,34.0,33.0,-100.00,South,180,4.0,-999.0,98,-99.99,,,-99.99,0.000000,,2013-01-28 08:00:00,
2013-01-28 03:42:00,34.0,33.0,-100.00,South,180,4.0,-999.0,98,-99.99,,,-99.99,0.000000,,2013-01-28 08:42:00,
2013-01-28 03:52:00,34.0,33.0,-100.00,South,180,4.0,-999.0,98,-99.99,,,-99.99,0.000000,,2013-01-28 08:52:00,
2013-01-28 04:00:00,35.0,35.0,-100.00,South,180,4.0,-999.0,98,0.03,,,-99.99,0.000000,,2013-01-28 09:00:00,
2013-01-28 04:42:00,35.0,35.0,-100.00,South,180,4.0,-999.0,98,0.03,,,-99.99,0.000000,,2013-01-28 09:42:00,
2013-01-28 04:52:00,35.0,35.0,-100.00,South,180,4.0,-999.0,98,0.03,,,-99.99,0.000000,,2013-01-28 09:52:00,
2013-01-28 05:00:00,35.0,35.0,-100.00,South,180,3.0,-999.0,99,-99.99,,,-99.99,0.000000,,2013-01-28 10:00:00,
2013-01-28 05:32:00,35.0,35.0,-100.00,South,180,3.0,-999.0,99,-99.99,,,-99.99,0.000000,,2013-01-28 10:32:00,
2013-01-28 05:42:00,35.0,35.0,-100.00,South,180,3.0,-999.0,99,-99.99,,,-99.99,0.000000,,2013-01-28 10:42:00,
2013-01-28 05:52:00,35.0,35.0,-100.00,South,180,3.0,-999.0,99,-99.99,,,-99.99,0.000000,,2013-01-28 10:52:00,
2013-01-28 06:00:00,39.0,39.0,-100.00,SSW,202,4.0,-999.0,99,-99.99,,,-99.99,0.000000,,2013-01-28 11:00:00,
2013-01-28 06:42:00,39.0,39.0,-100.00,SSW,202,4.0,-999.0,99,-99.99,,,-99.99,0.000000,,2013-01-28 11:42:00,
2013-01-28 06:52:00,39.0,39.0,-100.00,SSW,202,4.0,-999.0,99,-99.99,,,-99.99,0.000000,,2013-01-28 11:52:00,
2013-01-28 07:00:00,40.0,40.0,-100.00,SW,225,7.0,-999.0,99,0.01,,,-99.99,0.000000,,2013-01-28 12:00:00,
2013-01-28 07:42:00,40.0,40.0,-100.00,SW,225,7.0,-999.0,99,0.01,,,-99.99,0.000000,,2013-01-28 12:42:00,
2013-01-28 07:53:00,40.0,40.0,-100.00,SW,225,7.0,-999.0,99,0.01,,,-99.99,0.000000,,2013-01-28 12:53:00,
2013-01-28 08:00:00,41.0,41.0,-100.00,SSW,202,5.0,-999.0,99,0.06,,,-99.99,0.000000,,2013-01-28 13:00:00,
2013-01-28 08:33:00,41.0,41.0,-100.00,SSW,202,5.0,-999.0,99,0.06,,,-99.99,0.000000,,2013-01-28 13:33:00,
2013-01-28 08:43:00,41.0,41.0,-100.00,SSW,202,5.0,-999.0,99,0.06,,,-99.99,0.000000,,2013-01-28 13:43:00,
2013-01-28 08:53:00,41.0,41.0,-100.00,SSW,202,5.0,-999.0,99,0.06,,,-99.99,0.000000,,2013-01-28 13:53:00,
2013-01-28 09:00:00,41.0,41.0,-100.00,SW,225,7.0,-999.0,99,0.01,,,-99.99,3.480000,,2013-01-28 14:00:00,
2013-01-28 09:43:00,41.0,41.0,-100.00,SW,225,7.0,-999.0,99,0.01,,,-99.99,3.480000,,2013-01-28 14:43:00,
2013-01-28 09:53:00,41.0,41.0,-100.00,SW,225,7.0,-999.0,99,0.01,,,-99.99,3.480000,,2013-01-28 14:53:00,
2013-01-28 10:00:00,42.0,42.0,-100.00,SW,225,7.0,-999.0,99,0.01,,,-99.99,13.920000,,2013-01-28 15:00:00,
2013-01-28 10:33:00,42.0,42.0,-100.00,SW,225,7.0,-999.0,99,0.01,,,-99.99,13.920000,,2013-01-28 15:33:00,
2013-01-28 10:43:00,42.0,42.0,-100.00,SW,225,7.0,-999.0,99,0.01,,,-99.99,13.920000,,2013-01-28 15:43:00,
2013-01-28 10:53:00,42.0,42.0,-100.00,SW,225,7.0,-999.0,99,0.01,,,-99.99,13.920000,,2013-01-28 15:53:00,
2013-01-28 11:00:00,44.0,44.0,-100.00,SW,225,8.0,-999.0,100,-99.99,,,-99.99,24.360001,,2013-01-28 16:00:00,
2013-01-28 11:43:00,44.0,44.0,-100.00,SW,225,8.0,-999.0,100,-99.99,,,-99.99,24.360001,,2013-01-28 16:43:00,
2013-01-28 11:53:00,44.0,44.0,-100.00,SW,225,8.0,-999.0,100,-99.99,,,-99.99,24.360001,,2013-01-28 16:53:00,
2013-01-28 12:00:00,45.0,45.0,-100.00,SW,225,8.0,-999.0,100,0.01,,,-99.99,34.799999,,2013-01-28 17:00:00,
2013-01-28 12:42:00,45.0,45.0,-100.00,SW,225,8.0,-999.0,100,0.01,,,-99.99,34.799999,,2013-01-28 17:42:00,
2013-01-28 12:53:00,45.0,45.0,-100.00,SW,225,8.0,-999.0,100,0.01,,,-99.99,34.799999,,2013-01-28 17:53:00,
2013-01-28 13:00:00,46.0,46.0,-100.00,SW,225,6.0,-999.0,100,-99.99,,,-99.99,42.919998,,2013-01-28 18:00:00,
2013-01-28 13:43:00,46.0,46.0,-100.00,SW,225,6.0,-999.0,100,-99.99,,,-99.99,42.919998,,2013-01-28 18:43:00,
2013-01-28 13:53:00,46.0,46.0,-100.00,SW,225,6.0,-999.0,100,-99.99,,,-99.99,42.919998,,2013-01-28 18:53:00,
2013-01-28 14:00:00,47.0,47.0,-100.00,WSW,247,5.0,-999.0,100,-99.99,,,-99.99,46.400002,,2013-01-28 19:00:00,
2013-01-28 14:43:00,47.0,47.0,-100.00,WSW,247,5.0,-999.0,100,-99.99,,,-99.99,46.400002,,2013-01-28 19:43:00,
2013-01-28 14:53:00,47.0,47.0,-100.00,WSW,247,5.0,-999.0,100,-99.99,,,-99.99,46.400002,,2013-01-28 19:53:00,
2013-01-28 15:00:00,47.0,47.0,-100.00,WSW,247,5.0,-999.0,100,-99.99,,,-99.99,54.520000,,2013-01-28 20:00:00,
2013-01-28 15:43:00,47.0,47.0,-100.00,WSW,247,5.0,-999.0,100,-99.99,,,-99.99,54.520000,,2013-01-28 20:43:00,
2013-01-28 15:53:00,47.0,47.0,-100.00,WSW,247,5.0,-999.0,100,-99.99,,,-99.99,54.520000,,2013-01-28 20:53:00,
2013-01-28 16:00:00,45.0,45.0,-100.00,WNW,292,6.0,-999.0,100,-99.99,,,-99.99,45.240002,,2013-01-28 21:00:00,
2013-01-28 16:43:00,45.0,45.0,-100.00,WNW,292,6.0,-999.0,100,-99.99,,,-99.99,45.240002,,2013-01-28 21:43:00,
2013-01-28 16:53:00,45.0,45.0,-100.00,WNW,292,6.0,-999.0,100,-99.99,,,-99.99,45.240002,,2013-01-28 21:53:00,
2013-01-28 18:00:00,41.0,41.0,-100.00,WNW,292,2.0,-999.0,99,-99.99,,,-99.99,5.800000,,2013-01-28 23:00:00,
2013-01-28 18:33:00,41.0,41.0,-100.00,WNW,292,2.0,-999.0,99,-99.99,,,-99.99,5.800000,,2013-01-28 23:33:00,
2013-01-28 18:42:00,41.0,41.0,-100.00,WNW,292,2.0,-999.0,99,-99.99,,,-99.99,5.800000,,2013-01-28 23:42:00,
2013-01-28 18:53:00,41.0,41.0,-100.00,WNW,292,2.0,-999.0,99,-99.99,,,-99.99,5.800000,,2013-01-28 23:53:00,
2013-01-28 19:00:00,40.0,39.0,-100.00,WNW,292,1.0,-999.0,99,-99.99,,,-99.99,0.000000,,2013-01-29 00:00:00,
2013-01-28 19:42:00,40.0,39.0,-100.00,WNW,292,1.0,-999.0,99,-99.99,,,-99.99,0.000000,,2013-01-29 00:42:00,
2013-01-28 19:52:00,40.0,39.0,-100.00,WNW,292,1.0,-999.0,99,-99.99,,,-99.99,0.000000,,2013-01-29 00:52:00,
2013-01-28 20:00:00,38.0,38.0,-100.00,SE,135,1.0,-999.0,99,-99.99,,,-99.99,0.000000,,2013-01-29 01:00:00,
2013-01-28 20:42:00,38.0,38.0,-100.00,SE,135,1.0,-999.0,99,-99.99,,,-99.99,0.000000,,2013-01-29 01:42:00,
2013-01-28 20:53:00,38.0,38.0,-100.00,SE,135,1.0,-999.0,99,-99.99,,,-99.99,0.000000,,2013-01-29 01:53:00,
2013-01-28 21:00:00,37.0,37.0,-100.00,NE,45,1.0,-999.0,100,-99.99,,,-99.99,0.000000,,2013-01-29 02:00:00,
2013-01-28 21:42:00,37.0,37.0,-100.00,NE,45,1.0,-999.0,100,-99.99,,,-99.99,0.000000,,2013-01-29 02:42:00,
2013-01-28 21:53:00,37.0,37.0,-100.00,NE,45,1.0,-999.0,100,-99.99,,,-99.99,0.000000,,2013-01-29 02:53:00,
2013-01-28 22:00:00,36.0,36.0,-100.00,ENE,67,1.0,-999.0,100,-99.99,,,-99.99,0.000000,,2013-01-29 03:00:00,
2013-01-28 22:42:00,36.0,36.0,-100.00,ENE,67,1.0,-999.0,100,-99.99,,,-99.99,0.000000,,2013-01-29 03:42:00,
2013-01-28 22:53:00,36.0,36.0,-100.00,ENE,67,1.0,-999.0,100,-99.99,,,-99.99,0.000000,,2013-01-29 03:53:00,
2013-01-28 23:00:00,36.0,36.0,-100.00,ENE,67,2.0,-999.0,100,-99.99,,,-99.99,0.000000,,2013-01-29 04:00:00,
2013-01-28 23:32:00,36.0,36.0,-100.00,ENE,67,2.0,-999.0,100,-99.99,,,-99.99,0.000000,,2013-01-29 04:32:00,
2013-01-28 23:42:00,36.0,36.0,-100.00,ENE,67,2.0,-999.0,100,-99.99,,,-99.99,0.000000,,2013-01-29 04:42:00,
2013-01-28 23:52:00,36.0,36.0,-100.00,ENE,67,2.0,-999.0,100,-99.99,,,-99.99,0.000000,,2013-01-29 04:52:00,